Regional Weather Roundup
Issued by NWS San Diego, CA

Home | Current Version | Previous Version | Text Only | Print | Product List | Glossary On
Versions: 1 2 3 4 5 6 7 8 9 10 11 12 13 14 15 16 17 18 19 20 21 22 23 24 25 26 27 28 29 30 31 32 33 34 35 36 37 38 39 40 41 42 43 44 45 46 47 48 49 50
000
ASUS46 KSGX 020710
RWRSGX

SAN DIEGO HOURLY WEATHER ROUNDUP
NATIONAL WEATHER SERVICE SAN DIEGO CA
1200 AM PDT TUE SEP 02 2014

NOTE: "FAIR" INDICATES FEW OR NO CLOUDS BELOW 12,000 FEET WITH NO
SIGNIFICANT WEATHER AND/OR OBSTRUCTIONS TO VISIBILITY.

CAZ042-043-060-061-PZZ750-775-020800-

GREATER SAN DIEGO AREA

CITY           SKY/WX    TMP DP  RH WIND       PRES   REMARKS
LINDBERGH FLD  MOCLDY    70  63  78 SE8       29.86R
POINT LOMA       N/A     66  62  86 SE8         N/A
NATIONAL CITY    N/A     69  64  83 S3        29.85S
IMPERIAL BEACH CLOUDY    69  63  81 S6        29.85S
BROWN FIELD    MOCLDY    64  61  90 S3        29.85S
MIRAMAR MCAS   MOCLDY    67  62  84 S3        29.85S
MONTGOMERY FLD CLOUDY    68  63  84 S6        29.85S

$$

NORTH SAN DIEGO COUNTY

CITY           SKY/WX    TMP DP  RH WIND       PRES   REMARKS
CAMP PENDLETON CLOUDY    65  59  81 CALM      29.84R HAZE
OCEANSIDE AP   CLOUDY    64  59  83 CALM      29.83S
OCEANSIDE HBR    N/A     69  65  88 CALM      29.86R
VISTA            N/A     65  61  86 CALM      29.82S
CARLSBAD       MOCLDY    68  62  81 SE6       29.84R
DEL MAR          N/A     67  64  90 CALM      29.87R
LA JOLLA SCRIP   N/A     67  65  92 CALM      29.81S
FALLBROOK        N/A     64  64 100 CALM      29.85R
ESCONDIDO        N/A     66  62  85 CALM      29.86R
SAN MARCOS       N/A     65  61  85 CALM      29.82R
POWAY            N/A     64  59  84 CALM      29.85R

$$

EAST SAN DIEGO COUNTY

CITY           SKY/WX    TMP DP  RH WIND       PRES   REMARKS
RAMONA         CLEAR     60  55  83 W3        29.87R
SANTEE LAKES     N/A     63  59  88 CALM      29.86R
LA MESA          N/A     66  64  91 CALM      29.79R
JAMUL            N/A     62  59  90 CALM      29.84R
DESCANSO N       N/A     72  38  29 E5        29.69S
MT. LAGUNA OBS   N/A     64  34  33 S2        29.70S
CAMPO            N/A     59  39  47 NE6       29.90S

$$

ORANGE COUNTY AND THE LOS ANGELES BASIN

CITY           SKY/WX    TMP DP  RH WIND       PRES   REMARKS
JOHN WAYNE AP  CLEAR     71  63  75 SE6       29.83S
LAGUNA BEACH     N/A     69  65  86 CALM      29.79R
LAKE FOREST FR   N/A     64  58  82 CALM      29.73S
SANTA ANA        N/A     68  64  86 CALM      29.78S
HUNTINGTON BCH   N/A     67  64  90 CALM      29.85S
LOS ALAMITOS   FAIR      68  64  85 SE3       29.83S
FULLERTON      CLEAR     70  63  78 S3        29.82S
LONG BEACH     CLEAR     69  64  84 SE6       29.82S
L.A. AP        PTCLDY    70  65  84 CALM      29.83S
L.A. DOWNTOWN  CLEAR     71  61  70 CALM      29.82S

$$

THE INLAND EMPIRE

CITY           SKY/WX    TMP DP  RH WIND       PRES   REMARKS
CORONA         CLEAR     67  62  84 W3        29.84S
CHINO          CLEAR     65  61  87 W6        29.84F
ONTARIO        CLEAR     70  61  73 W5        29.84S
RIVERSIDE AP   CLEAR     70  61  73 W3        29.84S
RIV CYN CREST    N/A     72  68  86 CALM      29.81S
MORENO VALLEY    N/A     70  38  31 CALM      29.04F
MARCH ARB      CLEAR     68  55  64 W5        29.86S
HORSETHIEF CYN   N/A     67  44  43 SW3       29.83S
PERRIS           N/A     74  34  23 CALM      29.82S
MENIFEE          N/A     70  49  47 CALM      29.90S
HEMET EAST       N/A     69  33  26 CALM      29.81S
FRENCH VALLEY  FAIR      68  57  68 S3        29.86S
TEMECULA         N/A     67  62  85 S5        29.80R

$$

SAN BERNARDINO AND RIVERSIDE COUNTY MOUNTAINS

CITY           SKY/WX    TMP DP  RH WIND       PRES   REMARKS
BIG BEAR AP    CLEAR     48  25  40 CALM      30.20S
PINE COVE        N/A     66  37  33 CALM      29.69F

$$

SOUTHERN DESERT INCLUDING THE COACHELLA VALLEY

CITY           SKY/WX    TMP DP  RH WIND       PRES   REMARKS
PALM SPRINGS   CLEAR     88  34  14 CALM      29.73S
THOUSAND PALMS   N/A     90  31  12 NW10      29.67S
PALM DESERT      N/A     85  45  24 CALM        N/A
THERMAL        CLEAR     85  34  16 N5        29.66R
BLYTHE         CLEAR     91  44  19 SW8       29.70R
IMPERIAL AP    CLEAR     89  43  20 SW5       29.67S
YUMA AZ        CLEAR     88  61  40 S7        29.70S

$$

UPPER DESERT

CITY           SKY/WX    TMP DP  RH WIND       PRES   REMARKS
VICTORVILLE AP CLEAR     73  39  29 SW5       29.91S
HESPERIA         N/A     75  42  29 NW3       29.84S
APPLE VALLEY     N/A     79  41  25 NW2       29.97S
PALMDALE       CLEAR     72  37  28 CALM      29.89R
LANCASTER      CLEAR     77  39  25 W12       29.87S
EDWARDS AFB    CLEAR     76  42  29 SW9       29.85R
DAGGETT        CLEAR     82  37  20 W10       29.83R
29 PALMS N     CLEAR     83  34  17 CALM      29.88F
NEEDLES        CLEAR     90  36  14 VRB6      29.73S

$$

REGIONAL REPORTS

CITY           SKY/WX    TMP DP  RH WIND       PRES   REMARKS
SANTA BARBARA  PTCLDY    66  62  87 E5        29.81R
SANDBERG       CLEAR     73  43  33 W6        30.04S
MT. WILSON       N/A     68  19  15 NE6G13      N/A
LAS VEGAS NV   CLEAR     90  31  12 S10       29.78S
PHOENIX AZ     CLEAR     92  47  21 CALM      29.76S
TIJUANA        PTCLDY    66  59  77 CALM      29.88R
ENSENADA NW      N/A     68  32  26 S3        29.83S

$$

OFFSHORE ISLANDS

CITY           SKY/WX    TMP DP  RH WIND       PRES   REMARKS
CATALINA ARPT  MOCLDY    63  61  93 CALM      29.87S FOG
SAN NICOLAS IS CLEAR    N/A N/A N/A W7        29.83S

$$

MARINE AND OFFSHORE BUOY REPORTS

STATION/POSITION SKY/WX   TEMP    WIND        PRES    SWELL
                          AIR SEA DIR/SP/G            HT/PER/DIR
                          (F)     (DEG/KT/KT) (MB)    (FT/S/D)
TANNER BANKS               65 69  320/ 12/ 16 1010.8R   5/310/15
S CLEMENTE BASIN           70 72  280/ 10/ 12 1010.0S   3/240/13
SAN NICOLAS IS.               64                N/A     2/190/14
SO. S. ROSA ISLA           63 66  310/ 16/ 19 1009.5S   3/ 9
W. S. BARBARA CH           61 63  310/ 17/ 21 1008.8F   5/320/ 9
M. S. BARBARA CH           65 67  240/ 10/ 12 1009.4R
S. MONICA BASIN            67 72  310/  6/  6 1009.5R   3/240/14
S PEDRO CHANNEL               72                N/A     2/190/14
DANA POINT                    74                N/A     2/190/15
CMP PENDLETON NS              74                N/A     2/220/14
OCEANSIDE OFFSHR              74                N/A     2/220/14
TORREY PINES OTR              74                N/A     2/210/14
LA JOLLA 1                 69 71  150/  5/  7 1010.6R
MISSION BAY BUOY              73                N/A     3/210/15
SAN DIEGO BAY                 76              1011.1S
POINT LOMA SOUTH              74                N/A     3/210/14

$$




USA.gov is the U.S. government's official web portal to all federal, state and local government web resources and services.